"datetime","temp","dp","rain_mm","uv","solar","mb","wind_mph","gust_mph","windchill","rh"
"2015-08-18 00:00:00",13.9,11.2,0.0,0.0,0,1015.9,0,0,"",84
"2015-08-18 00:01:00",13.9,11.2,0.0,0.0,0,1015.9,0,0,"",84
"2015-08-18 00:02:00",13.9,11.2,0.0,0.0,0,1015.9,0,0,"",84
"2015-08-18 00:03:00",13.9,11.2,0.0,0.0,0,1015.8,0,0,"",84
"2015-08-18 00:04:00",13.9,11.2,0.0,0.0,0,1015.9,0,0,"",84
"2015-08-18 00:05:00",13.8,11.2,0.0,0.0,0,1015.8,0,0,"",84
"2015-08-18 00:06:00",13.8,11.2,0.0,0.0,0,1015.9,0,0,"",84
"2015-08-18 00:07:00",13.8,11.2,0.0,0.0,0,1015.9,0,0,"",84
"2015-08-18 00:08:00",13.8,11.2,0.0,0.0,0,1015.9,0,0,"",84
"2015-08-18 00:09:00",13.8,11.2,0.0,0.0,0,1015.9,0,0,"",84
"2015-08-18 00:10:00",13.8,11.2,0.0,0.0,0,1015.9,0,0,"",84
"2015-08-18 00:11:00",13.8,11.2,0.0,0.0,0,1015.9,0,0,"",84
"2015-08-18 00:12:00",13.8,11.1,0.0,0.0,0,1015.9,0,0,"",84
"2015-08-18 00:13:00",13.8,11.1,0.0,0.0,0,1015.8,0,0,"",84
"2015-08-18 00:14:00",13.8,11.1,0.0,0.0,0,1015.9,0,0,"",84
"2015-08-18 00:15:00",13.8,11.1,0.0,0.0,0,1015.8,0,0,"",84
"2015-08-18 00:16:00",13.8,11.1,0.0,0.0,0,1015.8,0,0,"",84
"2015-08-18 00:17:00",13.8,11.1,0.0,0.0,0,1015.8,0,0,"",84
"2015-08-18 00:18:00",13.7,11.1,0.0,0.0,0,1015.8,0,0,"",84
"2015-08-18 00:19:00",13.7,11.1,0.0,0.0,0,1015.8,0,0,"",84
"2015-08-18 00:20:00",13.7,11.1,0.0,0.0,0,1015.8,0,0,"",84
"2015-08-18 00:21:00",13.7,11.1,0.0,0.0,0,1015.8,0,0,"",84
"2015-08-18 00:22:00",13.7,11.1,0.0,0.0,0,1015.8,0,0,"",84
"2015-08-18 00:23:00",13.7,11.1,0.0,0.0,0,1015.8,0,0,"",84
"2015-08-18 00:24:00",13.7,11.1,0.0,0.0,0,1015.8,0,0,"",84
"2015-08-18 00:25:00",13.7,11.0,0.0,0.0,0,1015.8,0,0,"",84
"2015-08-18 00:26:00",13.7,11.0,0.0,0.0,0,1015.8,0,0,"",84
"2015-08-18 00:27:00",13.7,11.0,0.0,0.0,0,1015.8,0,0,"",84
"2015-08-18 00:28:00",13.7,11.0,0.0,0.0,0,1015.8,0,0,"",84
"2015-08-18 00:29:00",13.7,11.0,0.0,0.0,0,1015.8,0,0,"",84
"2015-08-18 00:30:00",13.7,11.0,0.0,0.0,0,1015.8,0,0,"",84
"2015-08-18 00:31:00",13.7,11.0,0.0,0.0,0,1015.8,0,0,"",84
"2015-08-18 00:32:00",13.7,11.0,0.0,0.0,0,1015.8,0,0,"",84
"2015-08-18 00:33:00",13.6,11.0,0.0,0.0,0,1015.8,0,0,"",84
"2015-08-18 00:34:00",13.6,11.0,0.0,0.0,0,1015.7,0,0,"",84
"2015-08-18 00:35:00",13.6,11.0,0.0,0.0,0,1015.8,0,0,"",84
"2015-08-18 00:36:00",13.6,11.0,0.0,0.0,0,1015.8,0,0,"",84
"2015-08-18 00:37:00",13.6,11.0,0.0,0.0,0,1015.8,0,0,"",84
"2015-08-18 00:38:00",13.6,10.9,0.0,0.0,0,1015.7,0,0,"",84
"2015-08-18 00:39:00",13.6,10.9,0.0,0.0,0,1015.7,0,0,"",84
"2015-08-18 00:40:00",13.6,10.9,0.0,0.0,0,1015.8,0,0,"",84
"2015-08-18 00:41:00",13.6,10.9,0.0,0.0,0,1015.7,0,0,"",84
"2015-08-18 00:42:00",13.6,10.9,0.0,0.0,0,1015.7,0,0,"",84
"2015-08-18 00:43:00",13.6,10.9,0.0,0.0,0,1015.7,0,0,"",84
"2015-08-18 00:44:00",13.6,10.9,0.0,0.0,0,1015.8,0,0,"",84
"2015-08-18 00:45:00",13.6,11.1,0.0,0.0,0,1015.7,0,0,"",85
"2015-08-18 00:46:00",13.6,11.1,0.0,0.0,0,1015.7,0,0,"",85
"2015-08-18 00:47:00",13.6,11.1,0.0,0.0,0,1015.7,0,0,"",85
"2015-08-18 00:48:00",13.6,11.1,0.0,0.0,0,1015.7,0,0,"",85
"2015-08-18 00:49:00",13.6,11.1,0.0,0.0,0,1015.7,0,0,"",85
"2015-08-18 00:50:00",13.5,11.0,0.0,0.0,0,1015.7,0,0,"",85
"2015-08-18 00:51:00",13.5,11.0,0.0,0.0,0,1015.7,0,0,"",85
"2015-08-18 00:52:00",13.5,11.0,0.0,0.0,0,1015.7,0,0,"",85
"2015-08-18 00:53:00",13.5,11.0,0.0,0.0,0,1015.7,0,0,"",85
"2015-08-18 00:54:00",13.5,11.0,0.0,0.0,0,1015.7,0,0,"",85
"2015-08-18 00:55:00",13.5,11.0,0.0,0.0,0,1015.7,0,0,"",85
"2015-08-18 00:56:00",13.5,11.0,0.0,0.0,0,1015.7,0,0,"",85
"2015-08-18 00:57:00",13.5,11.0,0.0,0.0,0,1015.7,0,0,"",85
"2015-08-18 00:58:00",13.5,11.0,0.0,0.0,0,1015.7,0,0,"",85
"2015-08-18 00:59:00",13.5,11.0,0.0,0.0,0,1015.7,0,0,"",85
"2015-08-18 01:00:00",13.4,11.0,0.0,0.0,0,1015.7,0,0,"",85
"2015-08-18 01:01:00",13.4,11.0,0.0,0.0,0,1015.7,0,0,"",85
"2015-08-18 01:02:00",13.4,11.0,0.0,0.0,0,1015.7,0,0,"",85
"2015-08-18 01:03:00",13.4,11.0,0.0,0.0,0,1015.7,0,0,"",85
"2015-08-18 01:04:00",13.4,11.0,0.0,0.0,0,1015.7,0,0,"",85
"2015-08-18 01:05:00",13.4,11.0,0.0,0.0,0,1015.7,0,0,"",85
"2015-08-18 01:06:00",13.4,11.0,0.0,0.0,0,1015.7,0,0,"",85
"2015-08-18 01:07:00",13.4,11.0,0.0,0.0,0,1015.7,0,0,"",85
"2015-08-18 01:08:00",13.4,11.0,0.0,0.0,0,1015.7,0,0,"",85
"2015-08-18 01:09:00",13.4,11.0,0.0,0.0,0,1015.7,0,0,"",85
"2015-08-18 01:10:00",13.4,10.9,0.0,0.0,0,1015.7,0,0,"",85
"2015-08-18 01:11:00",13.4,10.9,0.0,0.0,0,1015.7,0,0,"",85
"2015-08-18 01:12:00",13.4,10.9,0.0,0.0,0,1015.7,0,0,"",85
"2015-08-18 01:13:00",13.4,10.9,0.0,0.0,0,1015.7,0,0,"",85
"2015-08-18 01:14:00",13.4,10.9,0.0,0.0,0,1015.7,0,0,"",85
"2015-08-18 01:15:00",13.4,10.9,0.0,0.0,0,1015.6,0,0,"",85
"2015-08-18 01:16:00",13.4,10.9,0.0,0.0,0,1015.6,0,0,"",85
"2015-08-18 01:17:00",13.4,10.9,0.0,0.0,0,1015.6,0,0,"",85
"2015-08-18 01:18:00",13.4,10.9,0.0,0.0,0,1015.6,0,0,"",85
"2015-08-18 01:19:00",13.3,10.9,0.0,0.0,0,1015.6,0,0,"",85
"2015-08-18 01:20:00",13.3,10.9,0.0,0.0,0,1015.6,0,0,"",85
"2015-08-18 01:21:00",13.3,10.9,0.0,0.0,0,1015.6,0,0,"",85
"2015-08-18 01:22:00",13.3,10.9,0.0,0.0,0,1015.6,0,0,"",85
"2015-08-18 01:23:00",13.3,10.9,0.0,0.0,0,1015.6,0,0,"",85
"2015-08-18 01:24:00",13.3,10.9,0.0,0.0,0,1015.6,0,0,"",85
"2015-08-18 01:25:00",13.3,10.9,0.0,0.0,0,1015.6,0,0,"",85
"2015-08-18 01:26:00",13.3,10.9,0.0,0.0,0,1015.5,0,0,"",85
"2015-08-18 01:27:00",13.3,10.8,0.0,0.0,0,1015.5,0,0,"",85
"2015-08-18 01:28:00",13.3,10.8,0.0,0.0,0,1015.5,0,0,"",85
"2015-08-18 01:29:00",13.3,10.8,0.0,0.0,0,1015.5,0,0,"",85
"2015-08-18 01:30:00",13.3,10.8,0.0,0.0,0,1015.5,0,0,"",85
"2015-08-18 01:31:00",13.3,10.8,0.0,0.0,0,1015.5,0,0,"",85
"2015-08-18 01:32:00",13.3,10.8,0.0,0.0,0,1015.5,0,0,"",85
"2015-08-18 01:33:00",13.3,10.8,0.0,0.0,0,1015.5,0,0,"",85
"2015-08-18 01:34:00",13.3,10.8,0.0,0.0,0,1015.5,0,0,"",85
"2015-08-18 01:35:00",13.3,10.8,0.0,0.0,0,1015.5,0,0,"",85
"2015-08-18 01:36:00",13.3,10.8,0.0,0.0,0,1015.5,0,0,"",85
"2015-08-18 01:37:00",13.3,10.8,0.0,0.0,0,1015.5,0,0,"",85
"2015-08-18 01:38:00",13.3,10.8,0.0,0.0,0,1015.5,0,0,"",85
"2015-08-18 01:39:00",13.3,10.8,0.0,0.0,0,1015.5,0,0,"",85
"2015-08-18 01:40:00",13.2,10.8,0.0,0.0,0,1015.5,0,0,"",85
"2015-08-18 01:41:00",13.2,10.8,0.0,0.0,0,1015.5,0,0,"",85
"2015-08-18 01:42:00",13.2,10.8,0.0,0.0,0,1015.5,0,0,"",85
"2015-08-18 01:43:00",13.2,10.8,0.0,0.0,0,1015.5,0,0,"",85
"2015-08-18 01:44:00",13.2,10.8,0.0,0.0,0,1015.4,0,0,"",85
"2015-08-18 01:45:00",13.2,10.8,0.0,0.0,0,1015.4,0,0,"",85
"2015-08-18 01:46:00",13.2,10.7,0.0,0.0,0,1015.4,0,0,"",85
"2015-08-18 01:47:00",13.2,10.7,0.0,0.0,0,1015.4,0,0,"",85
"2015-08-18 01:48:00",13.2,10.7,0.0,0.0,0,1015.4,0,0,"",85
"2015-08-18 01:49:00",13.2,10.7,0.0,0.0,0,1015.4,0,0,"",85
"2015-08-18 01:50:00",13.2,10.7,0.0,0.0,0,1015.4,0,0,"",85
"2015-08-18 01:51:00",13.2,10.7,0.0,0.0,0,1015.4,0,0,"",85
"2015-08-18 01:52:00",13.2,10.7,0.0,0.0,0,1015.4,0,0,"",85
"2015-08-18 01:53:00",13.2,10.7,0.0,0.0,0,1015.4,0,0,"",85
"2015-08-18 01:54:00",13.2,10.7,0.0,0.0,0,1015.4,0,0,"",85
"2015-08-18 01:55:00",13.1,10.7,0.0,0.0,0,1015.4,0,0,"",85
"2015-08-18 01:56:00",13.1,10.7,0.0,0.0,0,1015.4,0,0,"",85
"2015-08-18 01:57:00",13.1,10.6,0.0,0.0,0,1015.4,0,0,"",85
"2015-08-18 01:58:00",13.1,10.6,0.0,0.0,0,1015.4,0,0,"",85
"2015-08-18 01:59:00",13.1,10.6,0.0,0.0,0,1015.4,0,0,"",85
"2015-08-18 02:00:00",13.1,10.6,0.0,0.0,0,1015.4,0,0,"",85
"2015-08-18 02:01:00",13.1,10.6,0.0,0.0,0,1015.4,0,0,"",85
"2015-08-18 02:02:00",13.1,10.6,0.0,0.0,0,1015.4,0,0,"",85
"2015-08-18 02:03:00",13.1,10.6,0.0,0.0,0,1015.4,0,0,"",85
"2015-08-18 02:04:00",13.1,10.6,0.0,0.0,0,1015.3,0,0,"",85
"2015-08-18 02:05:00",13.1,10.6,0.0,0.0,0,1015.3,0,0,"",85
"2015-08-18 02:06:00",13.1,10.6,0.0,0.0,0,1015.3,0,0,"",85
"2015-08-18 02:07:00",13.1,10.6,0.0,0.0,0,1015.3,0,0,"",85
"2015-08-18 02:08:00",13.1,10.6,0.0,0.0,0,1015.3,0,0,"",85
"2015-08-18 02:09:00",13.1,10.6,0.0,0.0,0,1015.3,0,0,"",85
"2015-08-18 02:10:00",13.0,10.6,0.0,0.0,0,1015.4,0,0,"",85
"2015-08-18 02:11:00",13.0,10.6,0.0,0.0,0,1015.3,0,0,"",85
"2015-08-18 02:12:00",13.0,10.5,0.0,0.0,0,1015.4,0,0,"",85
"2015-08-18 02:13:00",13.0,10.5,0.0,0.0,0,1015.4,0,0,"",85
"2015-08-18 02:14:00",13.0,10.5,0.0,0.0,0,1015.4,0,0,"",85
"2015-08-18 02:15:00",13.0,10.5,0.0,0.0,0,1015.4,0,0,"",85
"2015-08-18 02:16:00",13.0,10.7,0.0,0.0,0,1015.4,0,0,"",86
"2015-08-18 02:17:00",13.0,10.7,0.0,0.0,0,1015.4,0,0,"",86
"2015-08-18 02:18:00",13.0,10.7,0.0,0.0,0,1015.4,0,0,"",86
"2015-08-18 02:19:00",13.0,10.7,0.0,0.0,0,1015.4,0,0,"",86
"2015-08-18 02:20:00",13.0,10.7,0.0,0.0,0,1015.4,0,0,"",86
"2015-08-18 02:21:00",13.0,10.7,0.0,0.0,0,1015.4,0,0,"",86
"2015-08-18 02:22:00",12.9,10.7,0.0,0.0,0,1015.4,0,0,"",86
"2015-08-18 02:23:00",12.9,10.7,0.0,0.0,0,1015.4,0,0,"",86
"2015-08-18 02:24:00",12.9,10.7,0.0,0.0,0,1015.4,0,0,"",86
"2015-08-18 02:25:00",12.9,10.7,0.0,0.0,0,1015.4,0,0,"",86
"2015-08-18 02:26:00",12.9,10.7,0.0,0.0,0,1015.4,0,0,"",86
"2015-08-18 02:27:00",12.9,10.7,0.0,0.0,0,1015.4,0,0,"",86
"2015-08-18 02:28:00",12.9,10.7,0.0,0.0,0,1015.3,0,1,"",86
"2015-08-18 02:29:00",12.9,10.7,0.0,0.0,0,1015.3,0,1,"",86
"2015-08-18 02:30:00",12.9,10.7,0.0,0.0,0,1015.3,0,0,"",86
"2015-08-18 02:31:00",12.9,10.7,0.0,0.0,0,1015.4,0,1,"",86
"2015-08-18 02:32:00",12.9,10.7,0.0,0.0,0,1015.4,0,1,"",86
"2015-08-18 02:33:00",12.9,10.6,0.0,0.0,0,1015.3,0,1,"",86
"2015-08-18 02:34:00",12.9,10.6,0.0,0.0,0,1015.3,0,1,"",86
"2015-08-18 02:35:00",12.9,10.6,0.0,0.0,0,1015.3,0,1,"",86
"2015-08-18 02:36:00",12.9,10.6,0.0,0.0,0,1015.3,0,1,"",86
"2015-08-18 02:37:00",12.9,10.6,0.0,0.0,0,1015.3,0,1,"",86
"2015-08-18 02:38:00",12.9,10.6,0.0,0.0,0,1015.3,0,1,"",86
"2015-08-18 02:39:00",12.9,10.6,0.0,0.0,0,1015.3,0,1,"",86
"2015-08-18 02:40:00",12.9,10.6,0.0,0.0,0,1015.3,0,0,"",86
"2015-08-18 02:41:00",12.9,10.6,0.0,0.0,0,1015.3,0,1,"",86
"2015-08-18 02:42:00",12.9,10.6,0.0,0.0,0,1015.3,0,0,"",86
"2015-08-18 02:43:00",12.9,10.6,0.0,0.0,0,1015.3,0,0,"",86
"2015-08-18 02:44:00",12.9,10.6,0.0,0.0,0,1015.3,0,0,"",86
"2015-08-18 02:45:00",12.9,10.6,0.0,0.0,0,1015.3,0,0,"",86
"2015-08-18 02:46:00",12.9,10.6,0.0,0.0,0,1015.3,0,0,"",86
"2015-08-18 02:47:00",12.9,10.6,0.0,0.0,0,1015.3,0,0,"",86
"2015-08-18 02:48:00",12.9,10.6,0.0,0.0,0,1015.3,0,0,"",86
"2015-08-18 02:49:00",12.8,10.6,0.0,0.0,0,1015.3,0,0,"",86
"2015-08-18 02:50:00",12.8,10.5,0.0,0.0,0,1015.3,0,1,"",86
"2015-08-18 02:51:00",12.8,10.5,0.0,0.0,0,1015.3,0,1,"",86
"2015-08-18 02:52:00",12.8,10.5,0.0,0.0,0,1015.3,0,0,"",86
"2015-08-18 02:53:00",12.8,10.5,0.0,0.0,0,1015.3,0,0,"",86
"2015-08-18 02:54:00",12.8,10.5,0.0,0.0,0,1015.3,0,0,"",86
"2015-08-18 02:55:00",12.8,10.5,0.0,0.0,0,1015.3,0,1,"",86
"2015-08-18 02:56:00",12.8,10.5,0.0,0.0,0,1015.3,0,1,"",86
"2015-08-18 02:57:00",12.8,10.5,0.0,0.0,0,1015.3,0,1,"",86
"2015-08-18 02:58:00",12.8,10.5,0.0,0.0,0,1015.3,0,1,"",86
"2015-08-18 02:59:00",12.8,10.5,0.0,0.0,0,1015.3,0,1,"",86
"2015-08-18 03:00:00",12.8,10.5,0.0,0.0,0,1015.3,0,1,"",86
"2015-08-18 03:01:00",12.8,10.5,0.0,0.0,0,1015.3,0,1,"",86
"2015-08-18 03:02:00",12.8,10.5,0.0,0.0,0,1015.2,0,1,"",86
"2015-08-18 03:03:00",12.8,10.5,0.0,0.0,0,1015.3,0,1,"",86
"2015-08-18 03:04:00",12.8,10.5,0.0,0.0,0,1015.2,0,1,"",86
"2015-08-18 03:05:00",12.8,10.5,0.0,0.0,0,1015.2,0,1,"",86
"2015-08-18 03:06:00",12.8,10.5,0.0,0.0,0,1015.2,0,0,"",86
"2015-08-18 03:07:00",12.8,10.5,0.0,0.0,0,1015.2,0,0,"",86
"2015-08-18 03:08:00",12.8,10.5,0.0,0.0,0,1015.2,0,1,"",86
"2015-08-18 03:09:00",12.8,10.5,0.0,0.0,0,1015.2,0,0,"",86
"2015-08-18 03:10:00",12.8,10.5,0.0,0.0,0,1015.2,0,1,"",86
"2015-08-18 03:11:00",12.8,10.5,0.0,0.0,0,1015.2,0,0,"",86
"2015-08-18 03:12:00",12.8,10.5,0.0,0.0,0,1015.2,0,1,"",86
"2015-08-18 03:13:00",12.8,10.3,0.0,0.0,0,1015.2,0,1,"",85
"2015-08-18 03:14:00",12.8,10.5,0.0,0.0,0,1015.2,0,1,"",86
"2015-08-18 03:15:00",12.8,10.5,0.0,0.0,0,1015.2,0,1,"",86
"2015-08-18 03:16:00",12.8,10.5,0.0,0.0,0,1015.2,0,1,"",86
"2015-08-18 03:17:00",12.8,10.5,0.0,0.0,0,1015.2,0,0,"",86
"2015-08-18 03:18:00",12.8,10.5,0.0,0.0,0,1015.2,0,0,"",86
"2015-08-18 03:19:00",12.8,10.5,0.0,0.0,0,1015.2,0,0,"",86
"2015-08-18 03:20:00",12.7,10.3,0.0,0.0,0,1015.2,0,1,"",85
"2015-08-18 03:21:00",12.7,10.3,0.0,0.0,0,1015.2,0,1,"",85
"2015-08-18 03:22:00",12.7,10.3,0.0,0.0,0,1015.1,0,1,"",85
"2015-08-18 03:23:00",12.7,10.3,0.0,0.0,0,1015.1,0,1,"",85
"2015-08-18 03:24:00",12.7,10.3,0.0,0.0,0,1015.1,0,1,"",85
"2015-08-18 03:25:00",12.7,10.3,0.0,0.0,0,1015.1,0,0,"",85
"2015-08-18 03:26:00",12.7,10.3,0.0,0.0,0,1015.0,0,1,"",85
"2015-08-18 03:27:00",12.7,10.3,0.0,0.0,0,1015.0,0,1,"",85
"2015-08-18 03:28:00",12.7,10.3,0.0,0.0,0,1015.0,0,1,"",85
"2015-08-18 03:29:00",12.7,10.3,0.0,0.0,0,1015.0,0,0,"",85
"2015-08-18 03:30:00",12.7,10.3,0.0,0.0,0,1014.9,0,0,"",85
"2015-08-18 03:31:00",12.7,10.3,0.0,0.0,0,1014.9,0,1,"",85
"2015-08-18 03:32:00",12.7,10.3,0.0,0.0,0,1015.0,0,1,"",85
"2015-08-18 03:33:00",12.7,10.3,0.0,0.0,0,1014.9,0,1,"",85
"2015-08-18 03:34:00",12.7,10.3,0.0,0.0,0,1014.9,0,1,"",85
"2015-08-18 03:35:00",12.7,10.3,0.0,0.0,0,1014.9,0,1,"",85
"2015-08-18 03:36:00",12.7,10.3,0.0,0.0,0,1015.0,0,0,"",85
"2015-08-18 03:37:00",12.7,10.3,0.0,0.0,0,1015.0,0,0,"",85
"2015-08-18 03:38:00",12.7,10.3,0.0,0.0,0,1015.0,0,1,"",85
"2015-08-18 03:39:00",12.7,10.3,0.0,0.0,0,1015.0,0,0,"",85
"2015-08-18 03:40:00",12.7,10.3,0.0,0.0,0,1014.9,0,0,"",85
"2015-08-18 03:41:00",12.7,10.3,0.0,0.0,0,1014.9,0,0,"",85
"2015-08-18 03:42:00",12.7,10.3,0.0,0.0,0,1014.9,0,0,"",85
"2015-08-18 03:43:00",12.7,10.3,0.0,0.0,0,1015.0,0,0,"",85
"2015-08-18 03:44:00",12.7,10.3,0.0,0.0,0,1014.9,0,1,"",85
"2015-08-18 03:45:00",12.7,10.3,0.0,0.0,0,1014.9,0,0,"",85
"2015-08-18 03:46:00",12.7,10.3,0.0,0.0,0,1014.9,0,1,"",85
"2015-08-18 03:47:00",12.7,10.3,0.0,0.0,0,1014.9,0,0,"",85
"2015-08-18 03:48:00",12.7,10.3,0.0,0.0,0,1014.9,0,0,"",85
"2015-08-18 03:49:00",12.7,10.3,0.0,0.0,0,1014.9,0,0,"",85
"2015-08-18 03:50:00",12.7,10.3,0.0,0.0,0,1014.9,0,1,"",85
"2015-08-18 03:51:00",12.7,10.3,0.0,0.0,0,1014.9,0,1,"",85
"2015-08-18 03:52:00",12.7,10.3,0.0,0.0,0,1014.9,0,0,"",85
"2015-08-18 03:53:00",12.7,10.3,0.0,0.0,0,1014.9,0,0,"",85
"2015-08-18 03:54:00",12.7,10.3,0.0,0.0,0,1014.9,0,0,"",85
"2015-08-18 03:55:00",12.7,10.3,0.0,0.0,0,1014.9,0,0,"",85
"2015-08-18 03:56:00",12.7,10.3,0.0,0.0,0,1014.9,0,0,"",85
"2015-08-18 03:57:00",12.7,10.3,0.0,0.0,0,1014.8,0,0,"",85
"2015-08-18 03:58:00",12.7,10.3,0.0,0.0,0,1014.8,0,0,"",85
"2015-08-18 03:59:00",12.7,10.3,0.0,0.0,0,1014.8,0,0,"",85
"2015-08-18 04:00:00",12.7,10.3,0.0,0.0,0,1014.8,0,1,"",85
"2015-08-18 04:01:00",12.7,10.3,0.0,0.0,0,1014.8,0,1,"",85
"2015-08-18 04:02:00",12.7,10.3,0.0,0.0,0,1014.8,0,0,"",85
"2015-08-18 04:03:00",12.7,10.3,0.0,0.0,0,1014.8,0,0,"",85
"2015-08-18 04:04:00",12.7,10.3,0.0,0.0,0,1014.8,0,0,"",85
"2015-08-18 04:05:00",12.7,10.3,0.0,0.0,0,1014.8,0,0,"",85
"2015-08-18 04:06:00",12.7,10.3,0.0,0.0,0,1014.8,0,0,"",85
"2015-08-18 04:07:00",12.7,10.3,0.0,0.0,0,1014.8,0,0,"",85
"2015-08-18 04:08:00",12.7,10.3,0.0,0.0,0,1014.8,0,0,"",85
"2015-08-18 04:09:00",12.7,10.3,0.0,0.0,0,1014.8,0,0,"",85
"2015-08-18 04:10:00",12.7,10.3,0.0,0.0,0,1014.8,0,0,"",85
"2015-08-18 04:11:00",12.7,10.3,0.0,0.0,0,1014.8,0,0,"",85
"2015-08-18 04:12:00",12.7,10.3,0.0,0.0,0,1014.8,0,1,"",85
"2015-08-18 04:13:00",12.7,10.3,0.0,0.0,0,1014.8,0,0,"",85
"2015-08-18 04:14:00",12.7,10.3,0.0,0.0,0,1014.8,0,0,"",85
"2015-08-18 04:15:00",12.7,10.3,0.0,0.0,0,1014.8,0,1,"",85
"2015-08-18 04:16:00",12.7,10.3,0.0,0.0,0,1014.7,0,1,"",85
"2015-08-18 04:17:00",12.7,10.3,0.0,0.0,0,1014.7,0,0,"",85
"2015-08-18 04:18:00",12.7,10.3,0.0,0.0,0,1014.8,0,1,"",85
"2015-08-18 04:19:00",12.7,10.3,0.0,0.0,0,1014.8,0,1,"",85
"2015-08-18 04:20:00",12.7,10.3,0.0,0.0,0,1014.7,0,0,"",85
"2015-08-18 04:21:00",12.7,10.4,0.0,0.0,0,1014.6,0,1,"",86
"2015-08-18 04:22:00",12.7,10.4,0.0,0.0,0,1014.7,0,1,"",86
"2015-08-18 04:23:00",12.7,10.4,0.0,0.0,0,1014.7,0,0,"",86
"2015-08-18 04:24:00",12.7,10.4,0.0,0.0,0,1014.7,0,1,"",86
"2015-08-18 04:25:00",12.7,10.3,0.0,0.0,0,1014.7,0,1,"",85
"2015-08-18 04:26:00",12.7,10.3,0.0,0.0,0,1014.7,0,0,"",85
"2015-08-18 04:27:00",12.7,10.3,0.0,0.0,0,1014.7,0,1,"",85
"2015-08-18 04:28:00",12.7,10.3,0.0,0.0,0,1014.7,0,1,"",85
"2015-08-18 04:29:00",12.7,10.3,0.0,0.0,0,1014.7,0,0,"",85
"2015-08-18 04:30:00",12.7,10.3,0.0,0.0,0,1014.7,0,0,"",85
"2015-08-18 04:31:00",12.7,10.3,0.0,0.0,0,1014.7,0,0,"",85
"2015-08-18 04:32:00",12.7,10.3,0.0,0.0,0,1014.7,0,0,"",85
"2015-08-18 04:33:00",12.7,10.3,0.0,0.0,0,1014.6,0,0,"",85
"2015-08-18 04:34:00",12.7,10.3,0.0,0.0,0,1014.7,0,0,"",85
"2015-08-18 04:35:00",12.7,10.3,0.0,0.0,0,1014.6,0,1,"",85
"2015-08-18 04:36:00",12.7,10.3,0.0,0.0,0,1014.6,0,1,"",85
"2015-08-18 04:37:00",12.7,10.3,0.0,0.0,0,1014.6,0,0,"",85
"2015-08-18 04:38:00",12.7,10.3,0.0,0.0,0,1014.6,0,0,"",85
"2015-08-18 04:39:00",12.7,10.3,0.0,0.0,0,1014.6,0,1,"",85
"2015-08-18 04:40:00",12.7,10.3,0.0,0.0,0,1014.6,0,0,"",85
"2015-08-18 04:41:00",12.7,10.3,0.0,0.0,0,1014.6,0,0,"",85
"2015-08-18 04:42:00",12.7,10.3,0.0,0.0,0,1014.6,0,0,"",85
"2015-08-18 04:43:00",12.7,10.3,0.0,0.0,0,1014.6,0,0,"",85
"2015-08-18 04:44:00",12.7,10.3,0.0,0.0,0,1014.6,0,0,"",85
"2015-08-18 04:45:00",12.7,10.3,0.0,0.0,0,1014.6,0,0,"",85
"2015-08-18 04:46:00",12.7,10.3,0.0,0.0,0,1014.6,0,1,"",85
"2015-08-18 04:47:00",12.7,10.3,0.0,0.0,0,1014.6,0,1,"",85
"2015-08-18 04:48:00",12.7,10.3,0.0,0.0,0,1014.6,0,1,"",85
"2015-08-18 04:49:00",12.7,10.3,0.0,0.0,0,1014.6,0,1,"",85
"2015-08-18 04:50:00",12.7,10.3,0.0,0.0,0,1014.6,0,1,"",85
"2015-08-18 04:51:00",12.7,10.3,0.0,0.0,0,1014.5,0,0,"",85
"2015-08-18 04:52:00",12.7,10.3,0.0,0.0,0,1014.5,0,0,"",85
"2015-08-18 04:53:00",12.7,10.3,0.0,0.0,0,1014.5,0,0,"",85
"2015-08-18 04:54:00",12.7,10.3,0.0,0.0,0,1014.5,0,0,"",85
"2015-08-18 04:55:00",12.7,10.3,0.0,0.0,0,1014.5,0,0,"",85
"2015-08-18 04:56:00",12.7,10.3,0.0,0.0,0,1014.5,0,1,"",85
"2015-08-18 04:57:00",12.7,10.3,0.0,0.0,0,1014.5,0,1,"",85
"2015-08-18 04:58:00",12.7,10.3,0.0,0.0,0,1014.5,0,1,"",85
"2015-08-18 04:59:00",12.7,10.3,0.0,0.0,0,1014.5,0,0,"",85
"2015-08-18 05:00:00",12.7,10.3,0.0,0.0,0,1014.5,0,1,"",85
"2015-08-18 05:01:00",12.7,10.3,0.0,0.0,0,1014.5,0,1,"",85
"2015-08-18 05:02:00",12.7,10.3,0.0,0.0,0,1014.5,0,1,"",85
"2015-08-18 05:03:00",12.7,10.3,0.0,0.0,0,1014.5,0,0,"",85
"2015-08-18 05:04:00",12.7,10.3,0.0,0.0,0,1014.5,0,0,"",85
"2015-08-18 05:05:00",12.7,10.3,0.0,0.0,0,1014.5,0,0,"",85
"2015-08-18 05:06:00",12.7,10.3,0.0,0.0,0,1014.5,0,0,"",85
"2015-08-18 05:07:00",12.7,10.3,0.0,0.0,0,1014.5,0,0,"",85
"2015-08-18 05:08:00",12.7,10.3,0.0,0.0,0,1014.5,0,0,"",85
"2015-08-18 05:09:00",12.7,10.3,0.0,0.0,0,1014.5,0,0,"",85
"2015-08-18 05:10:00",12.7,10.3,0.0,0.0,0,1014.5,0,0,"",85
"2015-08-18 05:11:00",12.7,10.3,0.0,0.0,0,1014.5,0,0,"",85
"2015-08-18 05:12:00",12.7,10.3,0.0,0.0,0,1014.5,0,0,"",85
"2015-08-18 05:13:00",12.7,10.3,0.0,0.0,0,1014.5,0,0,"",85
"2015-08-18 05:14:00",12.7,10.3,0.0,0.0,0,1014.4,0,0,"",85
"2015-08-18 05:15:00",12.7,10.3,0.0,0.0,0,1014.5,0,0,"",85
"2015-08-18 05:16:00",12.7,10.3,0.0,0.0,0,1014.4,0,0,"",85
"2015-08-18 05:17:00",12.7,10.3,0.0,0.0,0,1014.4,0,0,"",85
"2015-08-18 05:18:00",12.7,10.3,0.0,0.0,0,1014.4,0,0,"",85
"2015-08-18 05:19:00",12.7,10.3,0.0,0.0,0,1014.5,0,0,"",85
"2015-08-18 05:20:00",12.7,10.3,0.0,0.0,0,1014.5,0,0,"",85
"2015-08-18 05:21:00",12.7,10.3,0.0,0.0,0,1014.4,0,0,"",85
"2015-08-18 05:22:00",12.7,10.3,0.0,0.0,0,1014.4,0,0,"",85
"2015-08-18 05:23:00",12.7,10.2,0.0,0.0,0,1014.4,0,1,"",85
"2015-08-18 05:24:00",12.7,10.2,0.0,0.0,0,1014.4,0,1,"",85
"2015-08-18 05:25:00",12.7,10.2,0.0,0.0,0,1014.4,0,0,"",85
"2015-08-18 05:26:00",12.7,10.2,0.0,0.0,0,1014.4,0,0,"",85
"2015-08-18 05:27:00",12.7,10.2,0.0,0.0,0,1014.4,0,0,"",85
"2015-08-18 05:28:00",12.7,10.2,0.0,0.0,0,1014.4,0,0,"",85
"2015-08-18 05:29:00",12.7,10.2,0.0,0.0,0,1014.4,0,0,"",85
"2015-08-18 05:30:00",12.7,10.2,0.0,0.0,0,1014.4,0,0,"",85
"2015-08-18 05:31:00",12.7,10.2,0.0,0.0,0,1014.4,0,0,"",85
"2015-08-18 05:32:00",12.7,10.2,0.0,0.0,0,1014.4,0,0,"",85
"2015-08-18 05:33:00",12.7,10.2,0.0,0.0,0,1014.4,0,0,"",85
"2015-08-18 05:34:00",12.7,10.2,0.0,0.0,0,1014.4,0,0,"",85
"2015-08-18 05:35:00",12.7,10.2,0.0,0.0,0,1014.4,0,0,"",85
"2015-08-18 05:36:00",12.7,10.2,0.0,0.0,0,1014.4,0,1,"",85
"2015-08-18 05:37:00",12.7,10.2,0.0,0.0,0,1014.4,0,0,"",85
"2015-08-18 05:38:00",12.6,10.2,0.0,0.0,0,1014.4,0,0,"",85
"2015-08-18 05:39:00",12.6,10.2,0.0,0.0,0,1014.4,0,1,"",85
"2015-08-18 05:40:00",12.6,10.2,0.0,0.0,0,1014.4,0,0,"",85
"2015-08-18 05:41:00",12.6,10.2,0.0,0.0,0,1014.4,0,0,"",85
"2015-08-18 05:42:00",12.6,10.2,0.0,0.0,0,1014.4,0,0,"",85
"2015-08-18 05:43:00",12.6,10.2,0.0,0.0,0,1014.4,0,0,"",85
"2015-08-18 05:44:00",12.6,10.1,0.0,0.0,0,1014.4,0,0,"",85
"2015-08-18 05:45:00",12.6,10.1,0.0,0.0,0,1014.4,0,0,"",85
"2015-08-18 05:46:00",12.6,10.1,0.0,0.0,0,1014.4,0,0,"",85
"2015-08-18 05:47:00",12.6,10.1,0.0,0.0,0,1014.4,0,0,"",85
"2015-08-18 05:48:00",12.6,10.1,0.0,0.0,0,1014.3,0,0,"",85
"2015-08-18 05:49:00",12.6,10.1,0.0,0.0,0,1014.3,0,0,"",85
"2015-08-18 05:50:00",12.6,10.1,0.0,0.0,0,1014.4,0,0,"",85
"2015-08-18 05:51:00",12.5,10.1,0.0,0.0,0,1014.4,0,1,"",85
"2015-08-18 05:52:00",12.5,10.0,0.0,0.0,0,1014.4,0,1,"",85
"2015-08-18 05:53:00",12.5,10.0,0.0,0.0,0,1014.4,0,1,"",85
"2015-08-18 05:54:00",12.5,10.0,0.0,0.0,0,1014.4,0,1,"",85
"2015-08-18 05:55:00",12.5,10.0,0.0,0.0,0,1014.4,0,1,"",85
"2015-08-18 05:56:00",12.5,10.0,0.0,0.0,0,1014.4,0,0,"",85
"2015-08-18 05:57:00",12.4,10.0,0.0,0.0,0,1014.4,0,0,"",85
"2015-08-18 05:58:00",12.4,10.0,0.0,0.0,0,1014.4,0,0,"",85
"2015-08-18 05:59:00",12.4,10.0,0.0,0.0,0,1014.4,0,0,"",85
"2015-08-18 06:00:00",12.4,10.0,0.0,0.0,0,1014.4,0,0,"",85
"2015-08-18 06:01:00",12.4,10.0,0.0,0.0,0,1014.4,0,0,"",85
"2015-08-18 06:02:00",12.4,10.0,0.0,0.0,0,1014.4,0,0,"",85
"2015-08-18 06:03:00",12.4,9.9,0.0,0.0,0,1014.4,0,0,"",85
"2015-08-18 06:04:00",12.4,9.9,0.0,0.0,0,1014.4,0,0,"",85
"2015-08-18 06:05:00",12.4,9.9,0.0,0.0,0,1014.4,0,0,"",85
"2015-08-18 06:06:00",12.4,9.9,0.0,0.0,0,1014.4,0,0,"",85
"2015-08-18 06:07:00",12.3,9.9,0.0,0.0,0,1014.4,0,0,"",85
"2015-08-18 06:08:00",12.3,9.9,0.0,0.0,0,1014.4,0,0,"",85
"2015-08-18 06:09:00",12.3,9.9,0.0,0.0,0,1014.4,0,0,"",85
"2015-08-18 06:10:00",12.3,9.9,0.0,0.0,0,1014.4,0,0,"",85
"2015-08-18 06:11:00",12.3,9.9,0.0,0.0,0,1014.4,0,0,"",85
"2015-08-18 06:12:00",12.3,9.9,0.0,0.0,0,1014.4,0,0,"",85
"2015-08-18 06:13:00",12.3,9.8,0.0,0.0,0,1014.4,0,0,"",85
"2015-08-18 06:14:00",12.3,9.8,0.0,0.0,0,1014.4,0,0,"",85
"2015-08-18 06:15:00",12.3,9.8,0.0,0.0,0,1014.4,0,0,"",85
"2015-08-18 06:16:00",12.3,9.8,0.0,0.0,0,1014.4,0,0,"",85
"2015-08-18 06:17:00",12.3,9.8,0.0,0.0,0,1014.4,0,0,"",85
"2015-08-18 06:18:00",12.3,9.8,0.0,0.0,5,1014.4,0,0,"",85
"2015-08-18 06:19:00",12.3,10.0,0.0,0.0,5,1014.4,0,0,"",86
"2015-08-18 06:20:00",12.2,10.0,0.0,0.0,5,1014.4,0,0,"",86
"2015-08-18 06:21:00",12.2,9.8,0.0,0.0,5,1014.4,0,0,"",85
"2015-08-18 06:22:00",12.2,9.8,0.0,0.0,7,1014.4,0,0,"",85
"2015-08-18 06:23:00",12.2,9.9,0.0,0.0,7,1014.4,0,0,"",86
"2015-08-18 06:24:00",12.2,9.9,0.0,0.0,7,1014.4,0,0,"",86
"2015-08-18 06:25:00",12.2,9.9,0.0,0.0,9,1014.4,0,0,"",86
"2015-08-18 06:26:00",12.2,9.9,0.0,0.0,9,1014.4,0,0,"",86
"2015-08-18 06:27:00",12.2,9.9,0.0,0.0,11,1014.5,0,0,"",86
"2015-08-18 06:28:00",12.2,9.9,0.0,0.0,11,1014.5,0,0,"",86
"2015-08-18 06:29:00",12.2,9.9,0.0,0.0,12,1014.4,0,0,"",86
"2015-08-18 06:30:00",12.2,9.9,0.0,0.0,12,1014.4,0,0,"",86
"2015-08-18 06:31:00",12.2,9.9,0.0,0.0,14,1014.5,0,0,"",86
"2015-08-18 06:32:00",12.2,9.9,0.0,0.0,14,1014.4,0,0,"",86
"2015-08-18 06:33:00",12.1,9.9,0.0,0.0,16,1014.4,0,0,"",86
"2015-08-18 06:34:00",12.1,9.8,0.0,0.0,16,1014.4,0,0,"",86
"2015-08-18 06:35:00",12.1,9.8,0.0,0.0,18,1014.4,0,0,"",86
"2015-08-18 06:36:00",12.1,9.8,0.0,0.0,18,1014.4,0,0,"",86
"2015-08-18 06:37:00",12.1,9.8,0.0,0.0,19,1014.4,0,0,"",86
"2015-08-18 06:38:00",12.1,9.8,0.0,0.0,19,1014.5,0,0,"",86
"2015-08-18 06:39:00",12.1,9.8,0.0,0.0,19,1014.5,0,0,"",86
"2015-08-18 06:40:00",12.1,9.8,0.0,0.0,19,1014.5,0,0,"",86
"2015-08-18 06:41:00",12.1,9.8,0.0,0.0,19,1014.5,0,0,"",86
"2015-08-18 06:42:00",12.1,9.8,0.0,0.0,19,1014.5,0,0,"",86
"2015-08-18 06:43:00",12.1,9.8,0.0,0.0,18,1014.5,0,0,"",86
"2015-08-18 06:44:00",12.1,9.8,0.0,0.0,18,1014.5,0,0,"",86